Regional Weather Roundup
Issued by NWS

Home | Current Version | Previous Version | Text Only | Print | Product List | Glossary On
Versions: 1 2 3 4 5 6 7 8 9 10 11 12 13 14 15 16 17 18 19 20 21 22 23 24 25 26 27 28 29 30 31 32 33 34 35 36 37 38 39 40 41 42 43 44 45 46 47 48 49 50
000
ASUS44 KLIX 311910
RWRLA
LOUISIANA WEATHER ROUNDUP
NATIONAL WEATHER SERVICE NEW ORLEANS LA
200 PM CDT FRI OCT 31 2014

NOTE: "FAIR" INDICATES FEW OR NO CLOUDS BELOW 12,000 FEET WITH NO
      SIGNIFICANT WEATHER AND/OR OBSTRUCTIONS TO VISIBILITY.
      SKY/WX - SKY CONDITION AND SIGNIFICANT WEATHER.
      TMP - AIR TEMPERATURE.    DP   - DEWPOINT TEMPERATURE.
      RH  - RELATIVE HUMIDITY.  PRES - PRESSURE.
      HX  - HEAT INDEX.         WCI  - WIND CHILL INDEX.

*  THESE STATIONS ARE NOT NWS OR FAA STATIONS AND ARE NOT UNDER
   NWS QUALITY CONTROL.

LAZ040-048-061>063-065-066-069-312000-
SOUTHEAST LOUISIANA

CITY           SKY/WX    TMP DP  RH WIND       PRES   REMARKS
N.O. AUDUBON     N/A     76  50  40 MISG        N/A
N.O. INTL ARPT MOSUNNY   76  46  34 NW16G25   30.01F
N.O. LAKEFRONT SUNNY     75  48  38 NW18      30.01F
N.O. DOWNTOWN* FAIR      73  45  35 NW7G20    30.01F
SLIDELL        SUNNY     76  44  32 N10       29.98F
BATON ROUGE    SUNNY     73  43  33 NW13G21   30.05F
BOOTHVILLE     SUNNY     74  52  46 NW8       30.00F
BELLE CHASSE   MOSUNNY   75  43  31 NW13G21   30.00F
BOGALUSA*        N/A     75  40  28 N16G25    30.01F
NEW ROADS*     FAIR      72  46  40 NW9       30.07F
GONZALES*      FAIR      74  42  31 NW15G21   30.03F
HAMMOND*       SUNNY     75  39  27 NW12G22   30.03F
HOUMA*         SUNNY     75  45  33 NW14      30.02F
PORT FOURCHON* CLEAR     73  50  43 NW13G18   30.05F

$$

LAZ041-044-053-054-312000-
SOUTHWEST LOUISIANA

CITY           SKY/WX    TMP DP  RH WIND       PRES   REMARKS
LAKE CHARLES   SUNNY     75  45  34 N15G24    30.10F
LAFAYETTE      SUNNY     75  40  28 NW15      30.08F
PATTERSON      SUNNY     73  48  40 NW14      30.08F
SALT POINT       N/A     76  46  34 NW10      30.04F
NEW IBERIA     SUNNY     76  44  32 N16G23    30.08F
CHENAULT AIRPK SUNNY     73  43  33 NW16G22   30.11F

$$

LAZ027-028-312000-
CENTRAL LOUISIANA

CITY           SKY/WX    TMP DP  RH WIND       PRES   REMARKS
FORT POLK      SUNNY     71  45  40 N12G18    30.13F
ALEXANDRIA INT SUNNY     73  46  38 N14G21    30.10F
ALEXANDRIA     SUNNY     71  48  43 N13G20    30.11F

$$

LAZ001-002-312000-
NORTHWEST LOUISIANA

CITY           SKY/WX    TMP DP  RH WIND       PRES   REMARKS
SHREVEPORT     MOSUNNY   69  44  40 N18G25    30.18F
BARKSDALE AFB  MOSUNNY   69  44  40 N14G21    30.19S
DTN SHREVEPORT MOSUNNY   67  44  43 NW12      30.19F

$$

LAZ014-016-312000-
NORTHEAST LOUISIANA

CITY           SKY/WX    TMP DP  RH WIND       PRES   REMARKS
MONROE         MOSUNNY   68  46  45 N14G24    30.15S
TALLULAH       MOSUNNY   69  47  45 N15G22    30.10S

$$




USA.gov is the U.S. government's official web portal to all federal, state and local government web resources and services.